QPF
0.03 0.03 0.02 0.01 0.01 0.01 0.01 0.01 0.01 0.01 0.01 0.01 0.02 0.02 0.03 0.03 0.03 0.07 0.07 0.03 0.02 0.01 0.01 0.01 0.01 0.01 0.01 0.01 0.01 0.00 0.00 0.00 0.00 0.01 0.01 0.00 0.00 0.00
0.05 0.05 0.03 0.02 0.02 0.02 0.01 0.01 0.01 0.01 0.01 0.01 0.02 0.03 0.04 0.04 0.03 0.02 0.02 0.02 0.01 0.01 0.01 0.01 0.01 0.01 0.00 0.00 0.00 0.00 0.00 0.00 0.00 0.01 0.01 0.00 0.00 0.00
0.08 0.07 0.05 0.04 0.04 0.03 0.03 0.02 0.02 0.03 0.03 0.02 0.02 0.02 0.04 0.04 0.03 0.03 0.02 0.02 0.02 0.02 0.02 0.01 0.01 0.00 0.00 0.00 0.00 0.00 0.00 0.00 0.00 0.00 0.00 0.00 0.00 0.00
0.09 0.08 0.07 0.07 0.07 0.06 0.05 0.04 0.03 0.04 0.04 0.03 0.03 0.02 0.03 0.04 0.04 0.03 0.03 0.02 0.02 0.02 0.01 0.01 0.01 0.01 0.00 0.00 0.00 0.01 0.00 0.00 0.00 0.00 0.00 0.00 0.00 0.00
0.12 0.09 0.07 0.08 0.08 0.08 0.07 0.06 0.05 0.05 0.04 0.05 0.06 0.07 0.08 0.08 0.07 0.05 0.04 0.03 0.02 0.02 0.01 0.01 0.01 0.01 0.01 0.01 0.01 0.01 0.01 0.00 0.00 0.00 0.00 0.00 0.00 0.00
0.12 0.11 0.09 0.07 0.09 0.10 0.10 0.10 0.11 0.10 0.09 0.08 0.08 0.09 0.12 0.11 0.10 0.09 0.06 0.05 0.04 0.03 0.03 0.03 0.02 0.02 0.02 0.02 0.01 0.01 0.00 0.00 0.00 0.00 0.00 0.00 0.00 0.00
0.10 0.11 0.10 0.10 0.10 0.09 0.09 0.10 0.10 0.11 0.12 0.13 0.12 0.11 0.10 0.10 0.11 0.09 0.08 0.07 0.05 0.04 0.04 0.03 0.03 0.03 0.02 0.02 0.01 0.00 0.00 0.00 0.00 0.00 0.00 0.00 0.00 0.00
0.13 0.15 0.15 0.13 0.13 0.13 0.13 0.11 0.10 0.10 0.11 0.12 0.11 0.10 0.09 0.08 0.08 0.07 0.06 0.05 0.04 0.02 0.02 0.02 0.01 0.01 0.01 0.01 0.00 0.00 0.00 0.00 0.00 0.00 0.00 0.00 0.00 0.00
0.15 0.17 0.16 0.15 0.15 0.13 0.12 0.11 0.10 0.09 0.09 0.09 0.10 0.09 0.07 0.05 0.04 0.04 0.03 0.04 0.03 0.02 0.02 0.01 0.01 0.01 0.01 0.01 0.01 0.00 0.00 0.00 0.00 0.00 0.00 0.00 0.00 0.00
0.13 0.12 0.13 0.14 0.13 0.11 0.09 0.07 0.06 0.06 0.05 0.04 0.04 0.05 0.04 0.03 0.02 0.02 0.02 0.02 0.02 0.02 0.02 0.01 0.01 0.01 0.01 0.00 0.00 0.00 0.00 0.00 0.00 0.00 0.00 0.00 0.00 0.00
0.16 0.15 0.13 0.13 0.12 0.10 0.07 0.07 0.06 0.06 0.06 0.06 0.06 0.06 0.06 0.05 0.04 0.03 0.03 0.03 0.04 0.04 0.03 0.03 0.02 0.01 0.01 0.00 0.00 0.00 0.00 0.00 0.00 0.00 0.00 0.00 0.00 0.00
0.15 0.13 0.12 0.11 0.12 0.12 0.11 0.10 0.09 0.07 0.05 0.05 0.05 0.05 0.04 0.04 0.04 0.03 0.03 0.03 0.04 0.04 0.03 0.03 0.02 0.01 0.01 0.01 0.00 0.00 0.00 0.00 0.00 0.00 0.00 0.00 0.00 0.00
0.10 0.10 0.11 0.11 0.11 0.11 0.10 0.09 0.09 0.07 0.06 0.05 0.05 0.04 0.03 0.03 0.02 0.01 0.01 0.01 0.02 0.02 0.02 0.01 0.01 0.01 0.01 0.01 0.00 0.00 0.00 0.00 0.00 0.00 0.00 0.00 0.00 0.00
0.08 0.09 0.11 0.12 0.12 0.11 0.11 0.12 0.11 0.10 0.08 0.07 0.06 0.05 0.04 0.03 0.02 0.01 0.01 0.00 0.00 0.01 0.01 0.01 0.01 0.01 0.01 0.01 0.00 0.00 0.00 0.00 0.00 0.00 0.00 0.00 0.00 0.00
0.09 0.09 0.09 0.10 0.10 0.11 0.13 0.12 0.10 0.08 0.07 0.06 0.05 0.04 0.03 0.02 0.01 0.01 0.01 0.01 0.00 0.00 0.00 0.00 0.00 0.00 0.00 0.00 0.00 0.00 0.00 0.00 0.00 0.00 0.00 0.00 0.00 0.00
0.12 0.12 0.11 0.10 0.10 0.10 0.09 0.08 0.06 0.05 0.05 0.04 0.04 0.03 0.02 0.01 0.01 0.01 0.01 0.01 0.01 0.00 0.00 0.00 0.00 0.00 0.00 0.00 0.00 0.00 0.00 0.00 0.00 0.00 0.00 0.00 0.00 0.00
0.10 0.11 0.11 0.10 0.09 0.07 0.06 0.05 0.05 0.05 0.04 0.03 0.02 0.01 0.01 0.01 0.00 0.00 0.00 0.00 0.00 0.00 0.00 0.00 0.00 0.00 0.00 0.00 0.00 0.00 0.00 0.00 0.00 0.00 0.01 0.01 0.00 0.00
0.11 0.11 0.10 0.09 0.07 0.07 0.05 0.04 0.03 0.02 0.02 0.01 0.01 0.00 0.00 0.00 0.00 0.00 0.00 0.00 0.00 0.00 0.00 0.00 0.00 0.00 0.00 0.00 0.00 0.00 0.00 0.00 0.00 0.00 0.00 0.00 0.00 0.00
0.08 0.07 0.06 0.05 0.04 0.03 0.02 0.02 0.01 0.01 0.00 0.00 0.00 0.00 0.00 0.00 0.00 0.00 0.00 0.00 0.00 0.00 0.00 0.00 0.00 0.00 0.00 0.00 0.00 0.00 0.01 0.01 0.00 0.00 0.00 0.00 0.00 0.00
0.03 0.02 0.02 0.02 0.01 0.01 0.01 0.00 0.00 0.00 0.00 0.00 0.00 0.00 0.00 0.00 0.00 0.00 0.00 0.00 0.00 0.00 0.00 0.00 0.00 0.00 0.00 0.00 0.00 0.00 0.00 0.00 0.00 0.00 0.00 0.00 0.00 0.01
0.03 0.02 0.02 0.01 0.01 0.00 0.00 0.00 0.00 0.00 0.00 0.00 0.00 0.00 0.00 0.00 0.00 0.00 0.00 0.00 0.00 0.00 0.00 0.00 0.00 0.00 0.00 0.00 0.00 0.00 0.00 0.00 0.00 0.01 0.01 0.01 0.01 0.02
0.03 0.02 0.01 0.01 0.01 0.00 0.00 0.00 0.00 0.00 0.00 0.00 0.00 0.00 0.00 0.00 0.00 0.00 0.00 0.00 0.00 0.00 0.00 0.00 0.00 0.00 0.00 0.01 0.01 0.01 0.01 0.01 0.02 0.02 0.02 0.02 0.02 0.02
0.02 0.01 0.01 0.01 0.00 0.00 0.00 0.00 0.00 0.00 0.00 0.00 0.00 0.00 0.00 0.00 0.00 0.00 0.00 0.00 0.00 0.00 0.00 0.00 0.00 0.01 0.01 0.01 0.01 0.01 0.01 0.02 0.02 0.01 0.01 0.01 0.01 0.01
MSLP
1017.20 1017.55 1017.89 1018.23 1018.55 1018.84 1019.08 1019.30 1019.48 1019.64 1019.79 1019.91 1020.01 1020.08 1020.12 1020.13 1020.12 1020.10 1020.10 1020.13 1020.22 1020.36 1020.55 1020.78 1021.01 1021.21 1021.36 1021.42 1021.39 1021.29 1021.14 1020.95 1020.78 1020.63 1020.52 1020.45 1020.42 1020.39
1016.66 1016.99 1017.32 1017.62 1017.92 1018.20 1018.48 1018.76 1019.05 1019.35 1019.66 1019.96 1020.22 1020.43 1020.58 1020.65 1020.65 1020.61 1020.54 1020.50 1020.49 1020.56 1020.68 1020.87 1021.09 1021.31 1021.49 1021.61 1021.65 1021.62 1021.52 1021.38 1021.23 1021.09 1020.98 1020.89 1020.83 1020.76
1016.18 1016.54 1016.87 1017.16 1017.45 1017.73 1018.04 1018.38 1018.77 1019.20 1019.66 1020.12 1020.55 1020.90 1021.15 1021.29 1021.32 1021.26 1021.15 1021.03 1020.94 1020.91 1020.97 1021.10 1021.30 1021.52 1021.73 1021.89 1021.99 1022.01 1021.97 1021.87 1021.75 1021.63 1021.52 1021.43 1021.34 1021.24
1015.83 1016.26 1016.62 1016.95 1017.24 1017.54 1017.87 1018.26 1018.72 1019.26 1019.84 1020.43 1020.99 1021.46 1021.81 1022.02 1022.08 1022.02 1021.87 1021.69 1021.53 1021.42 1021.41 1021.49 1021.64 1021.85 1022.06 1022.24 1022.38 1022.44 1022.43 1022.37 1022.28 1022.17 1022.06 1021.95 1021.84 1021.71
1015.67 1016.20 1016.64 1017.02 1017.34 1017.67 1018.02 1018.44 1018.95 1019.55 1020.20 1020.88 1021.52 1022.08 1022.51 1022.77 1022.87 1022.81 1022.65 1022.44 1022.22 1022.06 1021.99 1022.01 1022.12 1022.29 1022.48 1022.66 1022.79 1022.86 1022.87 1022.81 1022.72 1022.61 1022.49 1022.37 1022.24 1022.08
1015.73 1016.39 1016.93 1017.38 1017.76 1018.11 1018.48 1018.92 1019.44 1020.05 1020.73 1021.44 1022.12 1022.73 1023.19 1023.50 1023.62 1023.59 1023.43 1023.21 1022.98 1022.78 1022.67 1022.64 1022.70 1022.83 1022.97 1023.11 1023.21 1023.25 1023.23 1023.16 1023.05 1022.91 1022.77 1022.63 1022.47 1022.29
1016.02 1016.80 1017.45 1017.98 1018.42 1018.80 1019.19 1019.62 1020.12 1020.71 1021.37 1022.06 1022.73 1023.34 1023.81 1024.14 1024.29 1024.28 1024.15 1023.95 1023.72 1023.53 1023.39 1023.34 1023.35 1023.42 1023.51 1023.59 1023.62 1023.60 1023.52 1023.40 1023.24 1023.06 1022.88 1022.71 1022.52 1022.33
1016.51 1017.40 1018.15 1018.75 1019.23 1019.65 1020.04 1020.45 1020.91 1021.45 1022.05 1022.68 1023.31 1023.88 1024.34 1024.66 1024.83 1024.86 1024.77 1024.61 1024.42 1024.24 1024.11 1024.04 1024.02 1024.04 1024.06 1024.06 1024.01 1023.91 1023.76 1023.55 1023.33 1023.09 1022.86 1022.64 1022.43 1022.21
1017.18 1018.13 1018.93 1019.58 1020.11 1020.54 1020.93 1021.31 1021.73 1022.20 1022.72 1023.27 1023.83 1024.33 1024.76 1025.07 1025.25 1025.31 1025.27 1025.16 1025.02 1024.88 1024.78 1024.71 1024.66 1024.64 1024.60 1024.52 1024.39 1024.20 1023.96 1023.67 1023.37 1023.06 1022.77 1022.50 1022.26 1022.01
1017.96 1018.92 1019.74 1020.42 1020.97 1021.41 1021.79 1022.15 1022.51 1022.91 1023.35 1023.82 1024.28 1024.72 1025.09 1025.38 1025.56 1025.65 1025.66 1025.60 1025.52 1025.43 1025.36 1025.30 1025.25 1025.19 1025.10 1024.96 1024.76 1024.49 1024.16 1023.80 1023.42 1023.04 1022.69 1022.38 1022.09 1021.83
1018.81 1019.73 1020.53 1021.20 1021.76 1022.20 1022.58 1022.91 1023.24 1023.58 1023.95 1024.33 1024.72 1025.08 1025.40 1025.65 1025.83 1025.93 1025.97 1025.97 1025.94 1025.90 1025.86 1025.81 1025.76 1025.68 1025.56 1025.37 1025.11 1024.78 1024.39 1023.96 1023.52 1023.09 1022.69 1022.33 1022.00 1021.71
1019.70 1020.54 1021.29 1021.94 1022.48 1022.92 1023.29 1023.62 1023.92 1024.22 1024.53 1024.85 1025.16 1025.46 1025.73 1025.95 1026.11 1026.21 1026.27 1026.30 1026.29 1026.28 1026.27 1026.24 1026.19 1026.10 1025.95 1025.73 1025.44 1025.07 1024.64 1024.17 1023.69 1023.22 1022.77 1022.37 1022.02 1021.69
1020.60 1021.34 1022.02 1022.63 1023.15 1023.59 1023.96 1024.29 1024.58 1024.86 1025.13 1025.40 1025.67 1025.91 1026.13 1026.31 1026.44 1026.53 1026.59 1026.62 1026.63 1026.62 1026.61 1026.58 1026.52 1026.42 1026.26 1026.02 1025.71 1025.32 1024.88 1024.39 1023.89 1023.40 1022.93 1022.50 1022.11 1021.75
1021.50 1022.14 1022.75 1023.31 1023.81 1024.24 1024.62 1024.95 1025.24 1025.51 1025.77 1026.01 1026.23 1026.44 1026.61 1026.75 1026.85 1026.92 1026.95 1026.96 1026.95 1026.93 1026.90 1026.85 1026.77 1026.65 1026.48 1026.23 1025.91 1025.53 1025.08 1024.60 1024.09 1023.58 1023.10 1022.64 1022.22 1021.84
1022.39 1022.93 1023.47 1023.99 1024.46 1024.89 1025.27 1025.61 1025.91 1026.18 1026.43 1026.66 1026.86 1027.03 1027.17 1027.27 1027.33 1027.36 1027.36 1027.33 1027.28 1027.23 1027.15 1027.07 1026.96 1026.81 1026.61 1026.35 1026.03 1025.65 1025.21 1024.73 1024.23 1023.72 1023.23 1022.75 1022.30 1021.88
1023.24 1023.71 1024.19 1024.67 1025.12 1025.54 1025.92 1026.26 1026.57 1026.84 1027.09 1027.31 1027.49 1027.64 1027.75 1027.82 1027.85 1027.84 1027.79 1027.72 1027.62 1027.51 1027.39 1027.25 1027.10 1026.91 1026.68 1026.41 1026.08 1025.70 1025.26 1024.79 1024.29 1023.78 1023.27 1022.77 1022.29 1021.83
1024.02 1024.44 1024.89 1025.33 1025.76 1026.17 1026.54 1026.88 1027.19 1027.46 1027.70 1027.91 1028.08 1028.22 1028.31 1028.36 1028.36 1028.31 1028.23 1028.11 1027.96 1027.80 1027.62 1027.43 1027.22 1026.99 1026.73 1026.43 1026.08 1025.69 1025.25 1024.78 1024.27 1023.75 1023.22 1022.69 1022.17 1021.66
1024.70 1025.10 1025.52 1025.94 1026.35 1026.74 1027.10 1027.42 1027.72 1027.98 1028.21 1028.42 1028.58 1028.71 1028.79 1028.83 1028.81 1028.74 1028.63 1028.48 1028.30 1028.09 1027.86 1027.62 1027.36 1027.09 1026.79 1026.45 1026.08 1025.67 1025.22 1024.73 1024.20 1023.66 1023.10 1022.53 1021.97 1021.41
1025.27 1025.66 1026.06 1026.47 1026.85 1027.22 1027.55 1027.86 1028.14 1028.39 1028.61 1028.80 1028.97 1029.09 1029.17 1029.20 1029.19 1029.11 1028.99 1028.82 1028.62 1028.38 1028.12 1027.84 1027.55 1027.23 1026.89 1026.52 1026.12 1025.68 1025.20 1024.69 1024.13 1023.55 1022.96 1022.35 1021.73 1021.12
1025.72 1026.11 1026.50 1026.89 1027.25 1027.60 1027.91 1028.19 1028.45 1028.68 1028.89 1029.07 1029.23 1029.36 1029.44 1029.48 1029.47 1029.41 1029.30 1029.13 1028.92 1028.68 1028.40 1028.10 1027.78 1027.43 1027.06 1026.66 1026.22 1025.75 1025.24 1024.69 1024.10 1023.48 1022.84 1022.19 1021.52 1020.86
1026.06 1026.44 1026.83 1027.20 1027.55 1027.87 1028.16 1028.42 1028.66 1028.87 1029.07 1029.24 1029.40 1029.53 1029.62 1029.68 1029.68 1029.64 1029.54 1029.39 1029.19 1028.95 1028.67 1028.37 1028.03 1027.67 1027.27 1026.85 1026.38 1025.88 1025.33 1024.75 1024.13 1023.47 1022.79 1022.09 1021.38 1020.68
1026.29 1026.68 1027.06 1027.43 1027.76 1028.06 1028.33 1028.57 1028.79 1028.99 1029.18 1029.35 1029.51 1029.64 1029.74 1029.81 1029.83 1029.80 1029.72 1029.59 1029.40 1029.17 1028.90 1028.60 1028.26 1027.89 1027.48 1027.03 1026.55 1026.02 1025.45 1024.84 1024.18 1023.50 1022.79 1022.06 1021.32 1020.59
1026.45 1026.84 1027.22 1027.57 1027.89 1028.18 1028.44 1028.67 1028.88 1029.08 1029.26 1029.42 1029.57 1029.71 1029.81 1029.88 1029.91 1029.89 1029.82 1029.70 1029.53 1029.31 1029.05 1028.74 1028.40 1028.02 1027.61 1027.15 1026.66 1026.11 1025.53 1024.90 1024.23 1023.53 1022.80 1022.06 1021.31 1020.56
Thickness
5722 5720 5719 5719 5720 5719 5718 5715 5707 5699 5698 5703 5705 5708 5707 5705 5703 5701 5699 5696 5693 5691 5688 5685 5683 5680 5678 5675 5673 5671 5669 5667 5666 5664 5663 5662 5661 5660
5719 5717 5716 5715 5715 5715 5715 5713 5711 5704 5696 5698 5699 5700 5701 5700 5697 5694 5692 5690 5687 5684 5681 5678 5676 5673 5670 5668 5665 5663 5661 5659 5657 5656 5654 5653 5651 5650
5715 5713 5711 5711 5710 5710 5709 5708 5706 5703 5694 5692 5693 5693 5692 5691 5689 5686 5684 5681 5679 5676 5673 5671 5668 5665 5662 5659 5656 5654 5651 5649 5647 5645 5643 5642 5640 5639
5711 5709 5707 5707 5705 5705 5703 5702 5700 5698 5693 5686 5684 5683 5682 5682 5680 5677 5674 5672 5670 5667 5664 5661 5659 5655 5652 5649 5646 5643 5641 5638 5636 5634 5632 5630 5628 5627
5707 5705 5703 5702 5699 5698 5697 5695 5694 5693 5689 5683 5677 5674 5672 5672 5669 5667 5664 5661 5659 5656 5653 5651 5648 5645 5642 5638 5634 5632 5629 5626 5624 5621 5619 5617 5615 5614
5703 5701 5699 5697 5695 5693 5691 5689 5686 5683 5680 5675 5669 5665 5662 5661 5658 5654 5651 5649 5647 5644 5642 5639 5636 5633 5629 5626 5622 5619 5616 5613 5610 5608 5605 5603 5601 5599
5696 5694 5693 5692 5690 5687 5685 5681 5679 5674 5670 5664 5659 5654 5650 5648 5645 5643 5639 5635 5633 5631 5628 5625 5622 5619 5615 5612 5609 5605 5602 5599 5596 5593 5591 5588 5586 5584
5688 5685 5684 5682 5680 5678 5676 5674 5671 5667 5661 5656 5649 5644 5638 5636 5634 5633 5627 5624 5619 5617 5614 5610 5608 5603 5600 5597 5594 5591 5588 5584 5581 5578 5575 5573 5571 5569
5680 5678 5676 5672 5670 5667 5664 5661 5658 5656 5653 5647 5640 5634 5629 5626 5624 5620 5615 5611 5605 5602 5600 5594 5592 5588 5586 5582 5579 5575 5572 5569 5566 5563 5560 5557 5555 5553
5671 5669 5666 5661 5659 5656 5652 5647 5643 5640 5638 5635 5629 5623 5619 5616 5613 5609 5604 5598 5592 5588 5585 5578 5575 5572 5570 5567 5563 5560 5557 5553 5550 5547 5544 5541 5539 5537
5660 5658 5655 5652 5648 5646 5642 5635 5630 5625 5622 5620 5615 5610 5607 5604 5601 5596 5590 5584 5576 5571 5568 5563 5559 5555 5553 5550 5547 5544 5541 5537 5534 5531 5528 5525 5523 5520
5648 5646 5644 5641 5637 5634 5630 5624 5618 5612 5609 5605 5601 5597 5593 5589 5586 5581 5576 5568 5561 5555 5552 5547 5542 5538 5535 5533 5530 5527 5524 5521 5518 5515 5512 5509 5506 5503
5638 5633 5630 5628 5625 5621 5617 5612 5606 5601 5596 5592 5587 5582 5578 5574 5570 5566 5561 5555 5548 5541 5538 5534 5527 5522 5516 5513 5512 5511 5508 5504 5502 5499 5495 5492 5490 5487
5627 5621 5617 5615 5611 5608 5603 5598 5593 5589 5583 5577 5572 5567 5563 5559 5555 5550 5545 5540 5535 5529 5525 5520 5513 5507 5501 5496 5494 5493 5491 5488 5485 5481 5478 5476 5474 5471
5616 5610 5606 5602 5598 5594 5589 5585 5580 5574 5569 5563 5557 5551 5547 5544 5541 5536 5531 5526 5521 5516 5510 5505 5500 5494 5487 5482 5478 5475 5474 5473 5470 5466 5463 5461 5459 5457
5603 5597 5593 5589 5585 5580 5575 5571 5566 5561 5555 5549 5543 5538 5535 5530 5526 5521 5515 5510 5504 5500 5496 5492 5487 5481 5475 5471 5465 5462 5459 5456 5456 5453 5450 5448 5446 5444
5592 5586 5580 5575 5570 5565 5561 5556 5552 5548 5542 5536 5531 5525 5520 5516 5510 5506 5501 5495 5488 5483 5480 5478 5474 5470 5465 5460 5455 5451 5448 5445 5444 5441 5438 5435 5435 5433
5581 5574 5568 5563 5558 5553 5548 5543 5538 5534 5529 5523 5518 5512 5507 5502 5497 5492 5487 5481 5475 5470 5467 5463 5460 5456 5452 5450 5447 5442 5438 5435 5433 5431 5428 5424 5423 5425
5569 5562 5556 5551 5546 5541 5536 5531 5526 5521 5516 5511 5505 5499 5495 5490 5485 5479 5474 5469 5464 5459 5455 5452 5448 5443 5438 5435 5436 5435 5430 5427 5424 5422 5419 5416 5414 5416
5556 5551 5545 5540 5535 5530 5525 5520 5515 5509 5504 5499 5493 5488 5483 5478 5473 5468 5462 5458 5453 5449 5445 5443 5440 5435 5430 5426 5425 5425 5426 5421 5417 5414 5413 5411 5409 5410
5545 5540 5535 5530 5525 5520 5514 5509 5503 5498 5492 5487 5482 5477 5472 5468 5463 5458 5454 5451 5446 5441 5437 5435 5434 5432 5428 5423 5418 5417 5418 5417 5413 5409 5407 5404 5402 5402
5535 5530 5525 5520 5515 5510 5504 5498 5493 5487 5482 5477 5472 5468 5464 5459 5455 5451 5446 5442 5438 5434 5432 5430 5429 5426 5422 5417 5413 5411 5410 5411 5410 5407 5404 5401 5396 5394
5525 5521 5516 5511 5505 5500 5495 5489 5484 5478 5474 5469 5464 5460 5456 5452 5448 5444 5441 5437 5433 5430 5427 5424 5422 5419 5416 5412 5408 5406 5405 5404 5402 5401 5400 5400 5397 5395